SKW1166 KEWR-KLGA

Flight info

Callsign SKW1166
Flight time 0h 9m
Altitude 3000
Route APPLE V123 LGA
Aircraft CRJ7/M-VGDW/C

Departure

Time 2026-05-06 12:39
Airport Newark Liberty International Airport (KEWR)

Arrival

Time 2026-05-06 12:48
Airport LaGuardia Airport (KLGA)
Time Latitude Longitude Altitude Speed Heading
2026-05-06 12:32 40.69684 -74.17508 19 ft 0 kts 307°
2026-05-06 12:33 40.69683 -74.17507 19 ft 3 kts 307°
2026-05-06 12:33 40.69676 -74.17485 19 ft 3 kts 262°
2026-05-06 12:33 40.69683 -74.17470 20 ft 0 kts 216°
2026-05-06 12:34 40.69681 -74.17472 20 ft 1 kts 216°
2026-05-06 12:34 40.69678 -74.17474 20 ft 0 kts 201°
2026-05-06 12:35 40.69675 -74.17474 21 ft 4 kts 172°
2026-05-06 12:35 40.69675 -74.17417 20 ft 3 kts 37°
2026-05-06 12:36 40.69687 -74.17407 19 ft 8 kts 33°
2026-05-06 12:36 40.69766 -74.17330 21 ft 18 kts 42°
2026-05-06 12:36 40.69863 -74.17203 20 ft 22 kts 43°
2026-05-06 12:37 40.69958 -74.17031 19 ft 26 kts 74°
2026-05-06 12:37 40.70012 -74.16793 16 ft 24 kts 49°
2026-05-06 12:37 40.70074 -74.16618 14 ft 20 kts 89°
2026-05-06 12:37 40.70065 -74.16443 14 ft 19 kts 100°
2026-05-06 12:38 40.70012 -74.16382 12 ft 14 kts 174°
2026-05-06 12:38 40.69972 -74.16399 12 ft 0 kts 208°
2026-05-06 12:38 40.69871 -74.16465 14 ft 47 kts 206°
2026-05-06 12:38 40.69348 -74.16796 25 ft 114 kts 205°
2026-05-06 12:39 40.68556 -74.17276 252 ft 137 kts 203°
2026-05-06 12:39 40.67907 -74.17650 482 ft 162 kts 201°
2026-05-06 12:39 40.66728 -74.17722 1059 ft 193 kts 162°
2026-05-06 12:39 40.65771 -74.16343 1265 ft 223 kts 120°
2026-05-06 12:40 40.65553 -74.14282 1436 ft 246 kts 82°
2026-05-06 12:40 40.66512 -74.12401 1643 ft 256 kts 45°
2026-05-06 12:40 40.67809 -74.10776 2016 ft 258 kts 38°
2026-05-06 12:40 40.69339 -74.09559 2368 ft 255 kts 25°
2026-05-06 12:41 40.70836 -74.08332 2664 ft 254 kts 34°
2026-05-06 12:41 40.72177 -74.06779 2805 ft 261 kts 45°
2026-05-06 12:41 40.73402 -74.04966 2893 ft 270 kts 50°
2026-05-06 12:41 40.74622 -74.03015 2930 ft 281 kts 51°
2026-05-06 12:42 40.75881 -74.00991 2937 ft 291 kts 51°
2026-05-06 12:42 40.77224 -73.98942 2950 ft 300 kts 49°
2026-05-06 12:42 40.78633 -73.96857 2959 ft 309 kts 50°
2026-05-06 12:42 40.80076 -73.94704 2926 ft 317 kts 49°
2026-05-06 12:43 40.81549 -73.92521 2927 ft 315 kts 48°
2026-05-06 12:43 40.83000 -73.90381 2935 ft 306 kts 49°
2026-05-06 12:43 40.84372 -73.88348 2934 ft 287 kts 49°
2026-05-06 12:43 40.85656 -73.86446 2932 ft 268 kts 48°
2026-05-06 12:44 40.86848 -73.84699 2905 ft 251 kts 48°
2026-05-06 12:44 40.87978 -73.83032 2900 ft 238 kts 49°
2026-05-06 12:44 40.89026 -73.81406 2904 ft 227 kts 60°
2026-05-06 12:44 40.89252 -73.79477 2664 ft 209 kts 118°
2026-05-06 12:45 40.88422 -73.78185 2513 ft 170 kts 173°
2026-05-06 12:45 40.87418 -73.78402 2214 ft 142 kts 217°
2026-05-06 12:45 40.86024 -73.80162 1825 ft 134 kts 219°
2026-05-06 12:46 40.85360 -73.80897 1838 ft 115 kts 219°
2026-05-06 12:46 40.84757 -73.81531 1692 ft 109 kts 218°
2026-05-06 12:46 40.84137 -73.82121 1450 ft 112 kts 216°
2026-05-06 12:46 40.83467 -73.82747 1262 ft 122 kts 214°
2026-05-06 12:47 40.82758 -73.83404 1177 ft 126 kts 216°
2026-05-06 12:47 40.82025 -73.84071 978 ft 131 kts 215°
2026-05-06 12:47 40.81265 -73.84779 803 ft 137 kts 212°
2026-05-06 12:47 40.80464 -73.85468 656 ft 137 kts 213°
2026-05-06 12:48 40.79631 -73.86181 436 ft 147 kts 211°
2026-05-06 12:48 40.78803 -73.86860 119 ft 129 kts 210°
2026-05-06 12:48 40.78128 -73.87413 11 ft 96 kts 212°
2026-05-06 12:48 40.77791 -73.87690 17 ft 31 kts 210°
2026-05-06 12:49 40.77677 -73.87774 20 ft 0 kts 170°
2026-05-06 12:49 40.77646 -73.87720 23 ft 15 kts 121°
2026-05-06 12:49 40.77630 -73.87592 21 ft 17 kts 41°
2026-05-06 12:49 40.77738 -73.87476 19 ft 23 kts 59°
2026-05-06 12:50 40.77766 -73.87271 16 ft 27 kts 104°
2026-05-06 12:50 40.77675 -73.87065 14 ft 20 kts 127°
2026-05-06 12:50 40.77650 -73.87015 12 ft 0 kts 122°
2026-05-06 12:50 40.77642 -73.87005 12 ft 4 kts 152°
2026-05-06 12:51 40.77595 -73.86986 11 ft 7 kts 178°
2026-05-06 12:51 40.77578 -73.87001 12 ft 3 kts 252°
2026-05-06 12:51 40.77571 -73.87067 13 ft 9 kts 278°
2026-05-06 12:51 40.77576 -73.87096 14 ft 0 kts 286°